Regional Weather Roundup
Issued by NWS Newport/Morehead, NC

Current Version | Previous Version | Graphics & Text | Print | Product List | Glossary Off
Versions: 1 2 3 4 5 6 7 8 9 10 11 12 13 14 15 16 17 18 19 20 21 22 23 24 25 26 27 28 29 30 31 32 33 34 35 36 37 38 39 40 41 42 43 44 45 46 47 48 49 50

000
ASUS42 KMHX 051313
RWRMHX
WEATHER ROUNDUP FOR EASTERN NORTH CAROLINA
NATIONAL WEATHER SERVICE NEWPORT/MOREHEAD CITY NC
900 AM EDT SAT SEP 05 2015

NOTE: "FAIR" INDICATES FEW OR NO CLOUDS BELOW 12,000 FEET
WITH NO SIGNIFICANT WEATHER AND/OR OBSTRUCTIONS TO VISIBILITY

NCZ015>017-031-032-045>047-102-103-051400-
NORTH COAST

CITY           SKY/WX    TMP DP  RH WIND       PRES   REMARKS
EDENTON        PTSUNNY   75  71  88 N7        30.10R
ELIZABETH CITY PTSUNNY   79  75  87 NE22      30.09R
KITTY HAWK     PTSUNNY   81  75  81 NE8       30.07R
MANTEO         CLOUDY    80  75  84 NE13G20   30.08R

$$

NCZ045>047-081-094-103-104-051400-
CENTRAL COAST

CITY           SKY/WX    TMP DP  RH WIND       PRES   REMARKS
FRISCO         PTSUNNY   79  73  82 NE6       30.06R
SWANQUARTER      N/A     79 N/A N/A N5        30.03S

$$

NCZ095-097-098-100-101-051400-
SOUTHERN COAST

CITY           SKY/WX    TMP DP  RH WIND       PRES   REMARKS
BEAUFORT       PTSUNNY   77  74  90 NE9       30.04S
CEDAR ISLAND     N/A     79 N/A N/A N14       30.09S
JACKSONVILLE   SUNNY     76  71  85 N10       30.07R
PINEY ISLAND   MOSUNNY  N/A N/A N/A N13       30.05S
WILMINGTON     MOSUNNY   75  72  90 N12       30.07R


$$

NCZ011>013-027>030-043-044-078>080-089-090>093-098-051400-
COASTAL PLAIN

CITY           SKY/WX    TMP DP  RH WIND       PRES   REMARKS
AHOSKIE        MOSUNNY   73  71  92 N9        30.12S FOG
CLINTON        CLOUDY    74  73  96 NE6       30.12R FOG
ELIZABETHTOWN  CLOUDY    72  72 100 CALM      30.10R FOG
GOLDSBORO      PTSUNNY   74  72  92 N7        30.10R
GREENVILLE     SUNNY     73  73 100 N8        30.11S FOG
HAVELOCK       PTSUNNY   77  73  87 NE12      30.07S
KENANSVILLE      N/A     74  71  90 N6        30.11R
KINSTON        SUNNY     77  72  83 N7        30.11R
NEW BERN       MOSUNNY   77  72  84 NE9G20    30.09R
RICHLANDS      PTSUNNY   75  66  73 N8        30.09R
ROCKY MOUNT    CLOUDY    75  72  90 N10       30.13R FOG
WASHINGTON     SUNNY     75  72  89 N8        30.10R
WHITEVILLE     CLOUDY    73  71  92 NE6       30.09R FOG

$$

AMZ130-135-150-152-154-156-158-170-250-252-270-ANZ085-086-088-633-658-670-051400-
MARINE OBSERVATIONS

STATION/POSITION TIME  TEMP    WIND        PRES    WAVE   SWELL
                       AIR SEA DIR/SP/G            HT/PER HT/PER
                 (UTC) (F)     (DEG/KT/KT) (MB)    (FT/S) (FT/S)
CHESAPEAKE LIGHT 1300   78      60/ 27/ 28 1019.9
64 E VA BEACH    1250   79 80   50/ 23/ 27 1017.6    8/ 8   2/13
DUCK             1200   79 80   50/ 23/ 26 1017.2
2 E DUCK         1211      80                N/A     4/ 6
OREGON INLET     1200   79 80   30/  8/ 12 1017.3
13E OREGON INLT  1300      80                N/A     3/ 6
HATTERAS CG      1200   79 83   20/  8/ 11 1017.1
DIAMOND BUOY     1250   78 84  160/ 10/ 12 1017.6    3/ 5   3/ 5
CAPE LOOKOUT     1300   79      30/ 15/ 20 1016.9
BEAUFORT LAB     1200   77 82   30/  5/ 12 1016.8
30 SE NEW RVR IN NOT AVBL
30 SE NEW RVR IN 1225      81                N/A     4/ 5
27 SE WRIGHTSVLE 1200   76 82   40/ 16/ 17   N/A
5 SE WRIGHTSVLE  1208   76 82   20/ 16/ 19 1017.2
225 S CAPE HAT   1250   82 84   40/ 10/ 12 1015.4    2/ 8   2/ 8
41 SE CHARLESTON 1250   81 84   40/ 12/ 14 1016.6    2/ 3

$$


USA.gov is the U.S. government's official web portal to all federal, state and local government web resources and services.